DW1824 Weather Reports


time (UTC)temp
C
wind
direction
speed
KPH
gust
KPH
rain 1hr
cm
rain 24hr
cm
rain mn
cm
humidity
%
barometer
mb
20240418181327 29 163 6.4 24.1 0.00 0.00 0.00 73 1013.9
20240418180328 28 174 6.4 19.3 0.00 0.00 0.00 73 1013.9
20240418175316 28 175 6.4 16.1 0.00 0.00 0.00 73 1014.0
20240418174323 28 158 4.8 19.3 0.00 0.00 0.00 75 1014.0
20240418173327 28 161 9.7 17.7 0.00 0.00 0.00 76 1014.0
20240418172335 28 164 9.7 22.5 0.00 0.00 0.00 76 1014.1
20240418171343 28 157 11.3 19.3 0.00 0.00 0.00 77 1014.1
20240418165325 28 153 12.9 19.3 0.00 0.00 0.00 79 1014.4
20240418163348 27 155 8.0 16.1 0.00 0.00 0.00 80 1014.4
20240418162318 27 176 9.7 17.7 0.00 0.00 0.00 82 1014.5
20240418161327 27 160 12.9 17.7 0.00 0.00 0.00 81 1014.6
20240418160334 27 172 6.4 16.1 0.00 0.00 0.00 82 1014.7
20240418155323 26 155 14.5 17.7 0.00 0.00 0.00 84 1014.5
20240418154333 26 161 14.5 22.5 0.00 0.00 0.00 85 1014.4
20240418153314 26 153 11.3 19.3 0.00 0.00 0.00 86 1014.4
20240418152326 26 157 6.4 17.7 0.00 0.00 0.00 88 1014.5
20240418151318 26 148 8.0 17.7 0.00 0.00 0.00 88 1014.5
20240418150322 26 160 9.7 17.7 0.00 0.00 0.00 89 1014.5
20240418145331 25 168 9.7 20.9 0.00 0.00 0.00 89 1014.4
20240418144324 25 163 8.0 16.1 0.00 0.00 0.00 90 1014.4
20240418143326 25 155 8.0 17.7 0.00 0.00 0.00 91 1014.4
20240418142316 25 155 9.7 12.9 0.00 0.00 0.00 92 1014.6
20240418141326 24 143 6.4 12.9 0.00 0.00 0.00 94 1014.6
20240418140331 24 167 6.4 11.3 0.00 0.00 0.00 94 1014.5
20240418134321 23 158 4.8 8.0 0.00 0.00 0.00 95 1014.4
20240418133325 23 131 3.2 6.4 0.00 0.00 0.00 95 1014.4
20240418132319 23 155 0.0 3.2 0.00 0.00 0.00 95 1014.3
20240418131330 23 143 3.2 6.4 0.00 0.00 0.00 95 1014.2
20240418130313 23 124 4.8 9.7 0.00 0.00 0.00 95 1014.0
20240418125327 23 129 3.2 11.3 0.00 0.00 0.00 95 1014.0
20240418124318 23 157 4.8 9.7 0.00 0.00 0.00 95 1013.7
20240418123320 23 141 4.8 11.3 0.00 0.00 0.00 95 1013.5
20240418122329 23 134 4.8 11.3 0.00 0.00 0.00 95 1013.4
20240418121321 23 139 3.2 11.3 0.00 0.00 0.00 95 1013.3
20240418120344 23 133 3.2 6.4 0.00 0.00 0.00 95 1013.3
20240418115313 23 137 4.8 6.4 0.00 0.00 0.00 95 1013.4
20240418114322 23 133 3.2 6.4 0.00 0.00 0.00 95 1013.4
20240418113322 23 155 3.2 6.4 0.00 0.00 0.00 95 1013.4
20240418112337 23 143 3.2 9.7 0.00 0.00 0.00 95 1013.3
20240418111326 23 139 3.2 6.4 0.00 0.00 0.00 94 1013.4
20240418110329 23 147 3.2 6.4 0.00 0.00 0.00 94 1013.4
20240418104322 23 154 1.6 3.2 0.00 0.00 0.00 94 1013.3
20240418102326 23 168 3.2 8.0 0.00 0.00 0.00 94 1013.2
20240418101314 23 164 3.2 8.0 0.00 0.00 0.00 94 1013.2
20240418100319 23 158 3.2 9.7 0.00 0.00 0.00 94 1013.0
20240418095349 23 160 3.2 8.0 0.00 0.00 0.00 94 1013.2
20240418094319 23 137 6.4 9.7 0.00 0.00 0.00 94 1012.9
20240418093321 23 155 4.8 6.4 0.00 0.00 0.00 94 1012.7
20240418092335 23 191 4.8 11.3 0.00 0.00 0.00 94 1012.9
20240418091324 23 195 3.2 9.7 0.00 0.00 0.00 94 1012.6
20240418090325 23 143 6.4 12.9 0.00 0.00 0.00 94 1012.4
20240418085313 23 160 6.4 14.5 0.00 0.00 0.00 94 1012.5
20240418084328 23 160 6.4 17.7 0.00 0.00 0.00 94 1012.2
20240418083329 23 168 11.3 22.5 0.00 0.00 0.00 94 1012.0
20240418082319 23 170 9.7 17.7 0.00 0.00 0.00 94 1012.4
20240418081330 23 157 9.7 16.1 0.00 0.00 0.00 93 1012.5
20240418080317 23 149 8.0 22.5 0.00 0.00 0.00 93 1012.3
20240418074327 23 152 11.3 14.5 0.00 0.00 0.00 93 1012.5
20240418073328 23 160 8.0 16.1 0.00 0.00 0.00 93 1012.6
20240418072343 23 149 9.7 16.1 0.00 0.00 0.00 93 1012.7
20240418071330 23 155 6.4 12.9 0.00 0.00 0.00 93 1012.8
20240418070313 23 157 6.4 11.3 0.00 0.00 0.00 93 1012.8
20240418065321 23 131 6.4 11.3 0.00 0.00 0.00 93 1012.8
20240418064316 23 149 4.8 11.3 0.00 0.00 0.00 93 1013.0
20240418063337 23 155 6.4 9.7 0.00 0.00 0.00 93 1013.2
20240418062327 23 152 6.4 8.0 0.00 0.00 0.00 93 1013.5
20240418061316 23 148 3.2 9.7 0.00 0.00 0.00 93 1013.7
20240418060318 23 110 1.6 6.4 0.00 0.00 0.00 93 1013.5
20240418055331 23 147 3.2 11.3 0.00 0.00 0.00 93 1013.7
20240418054321 23 93 3.2 8.0 0.00 0.00 0.00 93 1013.5
20240418053322 23 143 6.4 12.9 0.00 0.00 0.00 93 1013.7
20240418052316 23 151 6.4 12.9 0.00 0.00 0.00 92 1014.0
20240418051325 23 157 8.0 12.9 0.00 0.00 0.00 92 1014.1
20240418050325 23 157 8.0 14.5 0.00 0.00 0.00 92 1014.1
20240418045313 23 154 6.4 14.5 0.00 0.00 0.00 92 1014.1
20240418044327 23 126 6.4 17.7 0.00 0.00 0.00 93 1014.2
20240418043346 23 148 6.4 12.9 0.00 0.00 0.00 93 1014.1
20240418042314 23 139 8.0 12.9 0.00 0.00 0.00 92 1014.2
20240418041324 23 134 6.4 11.3 0.00 0.00 0.00 92 1014.4
20240418040327 23 155 6.4 11.3 0.00 0.00 0.00 92 1014.6
20240418035320 23 150 8.0 14.5 0.00 0.00 0.00 91 1014.4
20240418034330 23 118 6.4 14.5 0.00 0.00 0.00 91 1014.4
20240418033331 23 149 4.8 8.0 0.00 0.00 0.00 91 1014.5
20240418032325 23 136 3.2 6.4 0.00 0.00 0.00 90 1014.6
20240418031314 23 141 3.2 4.8 0.00 0.00 0.00 90 1014.7
20240418030315 23 152 4.8 6.4 0.00 0.00 0.00 89 1014.7
20240418025326 23 152 3.2 8.0 0.00 0.00 0.00 89 1014.6
20240418024320 23 149 3.2 4.8 0.00 0.00 0.00 88 1014.4
20240418023323 23 141 3.2 4.8 0.00 0.00 0.00 88 1014.1
20240418022332 23 145 4.8 6.4 0.00 0.00 0.00 88 1014.1
20240418021319 24 127 1.6 4.8 0.00 0.00 0.00 88 1014.1
20240418020313 24 157 3.2 6.4 0.00 0.00 0.00 87 1013.9
20240418015321 24 135 4.8 11.3 0.00 0.00 0.00 87 1013.6
20240418014352 24 160 3.2 9.7 0.00 0.00 0.00 86 1013.6
20240418013313 25 133 6.4 11.3 0.00 0.00 0.00 85 1013.2
20240418012324 25 151 4.8 8.0 0.00 0.00 0.00 85 1013.3
20240418011338 25 141 4.8 8.0 0.00 0.00 0.00 85 1013.1
20240418010338 25 133 1.6 4.8 0.00 0.00 0.00 86 1013.2
20240418005347 25 133 3.2 9.7 0.00 0.00 0.00 85 1012.9
20240418004315 25 139 0.0 0.0 0.00 0.00 0.00 85 1012.8
20240418003317 25 139 0.0 0.0 0.00 0.00 0.00 84 1012.5
20240418002331 25 139 0.0 0.0 0.00 0.00 0.00 84 1012.3
20240418001322 25 139 0.0 0.0 0.00 0.00 0.00 83 1012.4
20240418000329 25 139 0.0 4.8 0.00 0.00 0.00 83 1012.4
20240417235334 25 126 0.0 4.8 0.00 0.00 0.00 82 1012.2
20240417234326 25 143 1.6 3.2 0.00 0.00 0.00 82 1012.0
20240417233348 25 122 1.6 6.4 0.00 0.00 0.00 82 1012.1
20240417232316 26 132 3.2 9.7 0.00 0.00 0.00 82 1012.3
20240417231326 26 119 1.6 4.8 0.00 0.00 0.00 82 1012.2
20240417230348 26 112 1.6 4.8 0.00 0.00 0.00 82 1012.3
20240417225321 26 111 0.0 6.4 0.00 0.00 0.00 82 1012.2
20240417224330 26 141 3.2 6.4 0.00 0.00 0.00 81 1012.2
20240417223314 26 128 1.6 6.4 0.00 0.00 0.00 81 1012.4
20240417222325 26 139 3.2 8.0 0.00 0.00 0.00 81 1012.5
20240417215350 26 140 4.8 11.3 0.00 0.00 0.00 80 1012.7
20240417214317 26 138 6.4 16.1 0.00 0.00 0.00 80 1012.9
20240417213340 26 126 6.4 14.5 0.00 0.00 0.00 79 1012.9
20240417212328 26 142 8.0 14.5 0.00 0.00 0.00 80 1013.0
20240417211321 26 145 4.8 16.1 0.00 0.00 0.00 80 1013.2
20240417210322 27 143 9.7 19.3 0.00 0.00 0.00 81 1013.5
20240417205332 26 128 9.7 16.1 0.00 0.00 0.00 80 1013.4
20240417204326 26 151 6.4 12.9 0.00 0.00 0.00 79 1013.7
20240417203341 27 117 4.8 8.0 0.00 0.00 0.00 81 1013.8
20240417201323 26 143 8.0 12.9 0.00 0.00 0.00 80 1014.3
20240417200324 26 158 6.4 12.9 0.00 0.00 0.00 80 1014.2
20240417195315 27 120 3.2 9.7 0.00 0.00 0.00 81 1014.2
20240417194345 26 139 1.6 8.0 0.00 0.00 0.00 80 1014.2
20240417193327 26 142 6.4 11.3 0.00 0.00 0.00 80 1014.4
20240417192338 26 141 3.2 11.3 0.00 0.00 0.00 80 1014.4
20240417191326 26 164 6.4 11.3 0.00 0.00 0.00 79 1014.4
20240417190329 26 158 4.8 14.5 0.00 0.00 0.00 80 1014.8
20240417185320 26 133 4.8 8.0 0.00 0.00 0.00 80 1014.9
20240417184329 26 139 6.4 12.9 0.00 0.00 0.00 79 1014.8
20240417183313 26 160 6.4 11.3 0.00 0.00 0.00 80 1014.8
20240417182323 26 155 4.8 14.5 0.00 0.00 0.00 81 1014.7